{"data":{"norad_id":67941,"intl_designator":"2026-037K","name":"STARLINK-36927","alt_names":[],"object_type":"PAYLOAD","status":"ACTIVE","operator":null,"country":"US","launch_date":"2026-02-24","launch_site_code":"AFETR","launch_vehicle":null,"mission":null,"orbit_class":"UNKNOWN","rcs_meters":null,"size_class":null,"mass_kg":null,"dimensions":null,"purposes":["comms"],"wikipedia_slug":null,"has_3d_model":false,"image_url":null,"decayed_at":null,"tle_current":{"epoch":"2026-05-25T04:41:41.110080Z","epoch_age_seconds":48205,"freshness":"FRESH","line1":"1 67941U 26037K   26145.19561470  .00016309  00000+0  60057-3 0  9995","line2":"2 67941  42.9996 118.4524 0000838 270.5262  89.5493 15.27596609 15044","mean_motion":15.27596609,"eccentricity":8.38e-5,"inclination_deg":42.9996,"raan_deg":118.4524,"arg_perigee_deg":270.5262,"mean_anomaly_deg":89.5493,"bstar":0.00060057,"rev_number":1504,"period_min":94.265723785722,"perigee_km":482.42439994197,"apogee_km":483.57432639644,"semimajor_km":6861.1363631692,"source":"CELESTRAK","updated_at":"2026-05-25T13:38:21.768003Z"}}}